User: anonymous   Login
Location: Unspecified
(0.0000°N, 0.0000°E)
Time: 10:04:11
(UTC+00:00)
Language:

INSAT 3D - Orbit

View from above orbital plane
View from above orbital plane
View from above satellite
View from above satellite

Ground track
Ground track

The orbit data is extracted from the following two-line orbital elements,

1 39216U 13038B   19018.44545374 -.00000150  00000-0  00000+0 0  9997
2 39216   0.0629 268.5738 0001125  42.0816  49.3249  1.00272441 20160
Epoch (UTC): 18 January 2019 10:41:27
Eccentricity: 0.0001125
inclination: 0.0629°
perigee height: 35781 km
apogee height: 35791 km
right ascension of ascending node: 268.5738°
argument of perigee: 42.0816°
revolutions per day: 1.00272441
mean anomaly at epoch: 49.3249°
orbit number at epoch: 2016

The dashed part of the orbit path shows where the satellite is in the earth's shadow,  

DLR